Weather History for KDAN - October, 2010

Change the Weather History Date:

Wednesday, October 13, 2010

  Actual Average Record
Temperature  
Mean Temperature 68 °F 60 °F  
Max Temperature 76 °F 71 °F 92 °F (1954)
Min Temperature 60 °F 50 °F 29 °F (1964)
Degree Days  
Heating Degree Days 0 6  
Month to date heating degree days 39 57  
Since 1 July heating degree days 42 85  
Cooling Degree Days 3 1  
Month to date cooling degree days 15 20  
Year to date cooling degree days 1927 1423  
Growing Degree Days 18 (Base 50)    
Moisture  
Dew Point 54 °F    
Average Humidity 63    
Maximum Humidity 84    
Minimum Humidity 41    
Precipitation  
Precipitation 0.02 in 0.12 in 1.64 in (1990)
Month to date precipitation 0.09 1.48  
Year to date precipitation 34.39 35.73  
Snow  
Snow 0.00 in - - ()
Month to date snowfall 0.0  
Since 1 July snowfall 0.0  
Since 1 September snowfall 0.0  
Snow Depth 0.00 in    
Sea Level Pressure  
Sea Level Pressure 29.94 in    
Wind  
Wind Speed 3 mph (North)    
Max Wind Speed 12 mph    
Max Gust Speed 16 mph    
Visibility 10 miles    
Events Rain    
T = Trace of Precipitation, MM = Missing Value Source: NWS Daily Summary

Daily Weather History Graph

Daily Weather History Graph

Search for Another Location

Airport or City:

Trip Planner

Search our weather history database for the weather conditions in past years. The results will help you decide how hot, cold, wet, or windy it might be!

Date:

Astronomy

Oct. 13, 2010 Rise Set
Actual Time 7:22 AM EDT 6:43 PM EDT
Civil Twilight 6:56 AM EDT 7:09 PM EDT
Nautical Twilight 6:26 AM EDT 7:39 PM EDT
Astronomical Twilight 5:56 AM EDT 8:09 PM EDT
Moon 1:34 PM EDT (10/13) 11:28 PM EDT (10/13)
Length of Visible Light 12h 12m
Length of Day
11h 20m
Waxing Crescent, 38% of the Moon is Illuminated
Oct 13
Waxing Crescent
Oct 14
First Quarter
Oct 22
Full
Oct 30
Last Quarter
Nov 6
New

Hourly Weather History & Observations

Time (EDT) Temp. Dew Point Humidity Pressure Visibility Wind Dir Wind Speed Gust Speed Precip Events Conditions
12:53 AM 71.1 °F 53.1 °F 53% 29.89 in 10.0 mi West 8.1 mph - 0.00 in   Overcast
1:53 AM 69.1 °F 55.0 °F 61% 29.90 in 9.0 mi West 11.5 mph - N/A   Overcast
2:53 AM 68.0 °F 55.9 °F 65% 29.88 in 9.0 mi NW 10.4 mph - 0.00 in Rain Light Rain
3:53 AM 66.0 °F 57.0 °F 73% 29.89 in 9.0 mi WNW 5.8 mph - 0.01 in   Overcast
4:53 AM 63.0 °F 60.1 °F 90% 29.91 in 7.0 mi NE 5.8 mph - 0.01 in Rain Light Rain
5:53 AM 63.0 °F 54.0 °F 72% 29.91 in 10.0 mi NE 8.1 mph - 0.00 in   Scattered Clouds
6:53 AM 62.1 °F 53.1 °F 72% 29.94 in 10.0 mi NE 3.5 mph - N/A   Mostly Cloudy
7:53 AM 61.0 °F 53.1 °F 75% 29.95 in 9.0 mi Calm Calm - N/A   Clear
8:53 AM 64.0 °F 50.0 °F 60% 29.98 in 10.0 mi NNE 4.6 mph - N/A   Partly Cloudy
9:53 AM 63.0 °F 48.9 °F 60% 30.00 in 10.0 mi NE 6.9 mph - N/A   Clear
10:53 AM 68.0 °F 50.0 °F 52% 30.01 in 10.0 mi NE 5.8 mph - N/A   Mostly Cloudy
11:53 AM 69.1 °F 51.1 °F 53% 30.00 in 10.0 mi NNE 8.1 mph - N/A   Overcast
12:53 PM 70.0 °F 51.1 °F 51% 29.99 in 10.0 mi Calm Calm - N/A   Overcast
1:53 PM 73.0 °F 50.0 °F 44% 29.96 in 10.0 mi Calm Calm - N/A   Mostly Cloudy
2:53 PM 75.9 °F 51.1 °F 42% 29.94 in 10.0 mi NNE 4.6 mph - N/A   Overcast
3:53 PM 75.9 °F 50.0 °F 40% 29.94 in 10.0 mi Variable 3.5 mph - N/A   Overcast
4:53 PM 73.0 °F 52.0 °F 48% 29.93 in 10.0 mi South 3.5 mph - N/A   Mostly Cloudy
5:53 PM 70.0 °F 57.0 °F 63% 29.93 in 10.0 mi Calm Calm - N/A   Clear
7:53 PM 66.0 °F 57.0 °F 73% 29.95 in 10.0 mi Calm Calm - N/A   Scattered Clouds
8:53 PM 62.1 °F 57.0 °F 84% 29.95 in 10.0 mi Calm Calm - N/A   Mostly Cloudy
9:53 PM 63.0 °F 57.0 °F 81% 29.96 in 10.0 mi Calm Calm - N/A   Mostly Cloudy
11:53 PM 62.1 °F 57.0 °F 84% 29.94 in 10.0 mi Calm Calm - N/A   Overcast